sat.trackr.live / text

‹ back to catalog

STARLINK-4159

NORAD 53292 · 2022-086BC

PAYLOAD ACTIVE UNKNOWN

§ Identity

Operator
Country
US
Launch date
2022-07-24
Launch site
AFETR
Launch vehicle
Mass (kg)
RCS (m²)

Purposes: comms

External: N2YO · Heavens-Above · Gunter

§ Orbital elements

Epoch: 2026-09-19T22:23:42.374976Z

Period
93.85 min
Inclination
53.1622°
Eccentricity
0.0001072
Mean motion
15.34394169 rev/d
Perigee alt
462.0 km
Apogee alt
463.5 km
Semi-major
6,840.9 km
B*
6.6820e-5
RAAN
16.0523°
Arg perigee
76.7890°
Mean anomaly
283.3232°
Rev number
23,073

§ Raw data

STARLINK-41591 53292U 22086BC  26262.93312934  .00001882  00000+0  66820-4 0  99952 53292  53.1622  16.0523 0001072  76.7890 283.3232 15.34394169230739

JSON: /api/v1/satellites/53292 · /tle

For live sub-satellite position, see the globe view (requires WebGL).

§ Visibility from observer

Set your observer location to see the next 7 days of passes ≥ 10°. The values pass through the URL so the page stays shareable.

No JS? Fill the form by hand. The geolocation button needs JavaScript.